Bookmark and Share
Track history (hours):
 

Voyager Of The Seas

Operator: Royal Caribbean Cruises Ltd

Last reported at 2014-Apr-23 13:10 UTC. Time now 2014-Apr-24 19:17 UTC.
Position N 33°27' E 129°12'.

Type: Passenger vessel. MMSI: 311317000.

NotesDate/timePositionNaut miles runAvg speedWind from/ knotsBaromVisibWave heightAir tempDewpointWater temp
2014-Apr-23 13:10N 33°27' E 129°12'1219.0
2014-Apr-23 12:34N 33°38' E 129°08'1918.6
2014-Apr-23 11:33N 33°56' E 129°02'6917.4
2014-Apr-23 07:33N 35°05' E 129°06'1 1.0
2014-Apr-23 06:30N 35°05' E 129°05'0 0.0
2014-Apr-23 05:30N 35°05' E 129°05'0 0.0
2014-Apr-23 04:33N 35°05' E 129°05'0 0.0
2014-Apr-23 03:27N 35°05' E 129°05'0 0.0
2014-Apr-23 02:33N 35°05' E 129°05'0 0.0
2014-Apr-23 01:27N 35°05' E 129°05'0 0.0
2014-Apr-23 00:27N 35°05' E 129°05'0 0.0
2014-Apr-22 23:27N 35°05' E 129°05'0 0.0
2014-Apr-22 22:33N 35°05' E 129°05'0 0.2
2014-Apr-22 21:33N 35°05' E 129°05'  
2014-Apr-20 11:32N 34°50' E 139°20'2020.9
2014-Apr-20 10:33N 35°02' E 139°39'1514.8
2014-Apr-20 09:33N 35°16' E 139°46'1211.9
2014-Apr-20 08:33N 35°28' E 139°48'8 7.1
2014-Apr-20 07:28N 35°36' E 139°47'0 0.0
2014-Apr-20 06:31N 35°36' E 139°47'0 0.0
2014-Apr-20 05:28N 35°36' E 139°47'0 0.0
2014-Apr-20 04:31N 35°36' E 139°47'0 0.0
2014-Apr-20 03:31N 35°36' E 139°47'0 0.0
2014-Apr-20 02:31N 35°36' E 139°47'0 0.0
2014-Apr-20 01:25N 35°36' E 139°47'0 0.0
2014-Apr-20 00:31N 35°36' E 139°47'0 0.0
2014-Apr-19 23:25N 35°36' E 139°47'0 0.0
2014-Apr-19 22:31N 35°36' E 139°47'0 0.0
2014-Apr-19 21:31N 35°36' E 139°47'0 0.0
2014-Apr-19 20:32N 35°36' E 139°47'5 4.8
2014-Apr-19 19:33N 35°33' E 139°51'1211.7
2014-Apr-19 18:33N 35°22' E 139°45'1212.1
2014-Apr-19 17:33N 35°10' E 139°47'1515.1
2014-Apr-19 16:33N 34°56' E 139°40'2219.8
2014-Apr-19 15:28N 34°38' E 139°26'  
2014-Apr-15 11:34N 22°50' E 120°01'2020.3
2014-Apr-15 10:34N 22°33' E 120°13'5 5.3
2014-Apr-15 09:34N 22°35' E 120°18'2 2.0
2014-Apr-15 08:34N 22°37' E 120°17'0 0.0
2014-Apr-15 07:34N 22°37' E 120°17'0 0.0
2014-Apr-15 06:34N 22°37' E 120°17'0 0.0
2014-Apr-15 05:34N 22°37' E 120°17'0 0.0
2014-Apr-15 03:34N 22°37' E 120°17'0 0.0
2014-Apr-15 02:34N 22°37' E 120°17'4 4.0
2014-Apr-15 01:34N 22°33' E 120°19'5 4.5
2014-Apr-15 00:34N 22°32' E 120°15'1414.3
2014-Apr-14 23:34N 22°29' E 119°59'32118.9
2014-Apr-14 06:33N 22°18' E 114°13'0 0.0
2014-Apr-13 22:19N 22°18' E 114°13'0 0.0
2014-Apr-13 21:13N 22°18' E 114°13'0 0.0
2014-Apr-13 20:13N 22°18' E 114°13'0 0.0
2014-Apr-13 19:31N 22°18' E 114°13'0 0.0
2014-Apr-13 17:13N 22°18' E 114°13'0 0.0
2014-Apr-13 16:26N 22°18' E 114°13'0 0.0
2014-Apr-13 15:25N 22°18' E 114°13'0 0.0
2014-Apr-13 14:31N 22°18' E 114°13'0 0.2
2014-Apr-13 13:33N 22°18' E 114°13'  

Dump ship's entire track history

sailing weather and tide predictions

Voyager Of The Seas — C6SE5 — position and weather